Beach, ND

10:14 AM MDT on July 23, 2017 (GMT -0600)
Beach

Weather History for K20U - March, 2013

Change the Weather History Date:

Tuesday, March 26, 2013

  Actual Average (KGDV) Record (KGDV)
Temperature  
Mean Temperature 26 °F -  
Max Temperature 37 °F 44 °F 77 °F (1999)
Min Temperature 14 °F 23 °F 10 °F (2002)
Degree Days  
Heating Degree Days 40    
Moisture  
Dew Point 18 °F    
Average Humidity 76    
Maximum Humidity 93    
Minimum Humidity 60    
Precipitation  
Precipitation 0.00 in - - ()
Sea Level Pressure  
Sea Level Pressure 30.05 in    
Wind  
Wind Speed 12 mph (SSE)    
Max Wind Speed 17 mph    
Max Gust Speed 23 mph    
Visibility 10 miles    
Events      
Averages and records for this station are not official NWS values.
T = Trace of Precipitation, MM = Missing Value Source: NWS Daily Summary

Daily Weather History Graph

Daily Weather History Graph

Search for Another Location

Airport or City:

Trip Planner

Search our weather history database for the weather conditions in past years. The results will help you decide how hot, cold, wet, or windy it might be!

Date:

Astronomy

Mar. 26, 2013 Rise Set
Actual Time 6:46 AM MDT 7:17 PM MDT
Civil Twilight 6:15 AM MDT 7:47 PM MDT
Nautical Twilight 5:39 AM MDT 8:24 PM MDT
Astronomical Twilight 5:02 AM MDT 9:01 PM MDT
Moon 6:58 PM MDT (3/26) 6:05 AM MDT (3/26)
Length of Visible Light 13h 32m
Length of Day
12h 31m
Waxing Gibbous, 99% of the Moon is Illuminated
Mar 26
Waxing Gibbous
Mar 27
Full
Apr 2
Last Quarter
Apr 10
New
Apr 18
First Quarter

Hourly Weather History & Observations

Time (MDT) Temp. Windchill Dew Point Humidity Pressure Visibility Wind Dir Wind Speed Gust Speed Precip Events Conditions
12:15 AM 15.8 °F 3.4 °F 12.2 °F 86% 30.15 in 10.0 mi SSE 10.4 mph - N/A   Clear
12:35 AM 15.8 °F 4.2 °F 14.0 °F 93% 30.14 in 10.0 mi SSE 9.2 mph - N/A   Clear
12:55 AM 15.8 °F 3.4 °F 12.2 °F 86% 30.13 in 10.0 mi SSE 10.4 mph - N/A   Clear
1:15 AM 15.8 °F 2.7 °F 12.2 °F 86% 30.12 in 10.0 mi SSE 11.5 mph - N/A   Clear
1:35 AM 15.8 °F 2.7 °F 12.2 °F 86% 30.12 in 10.0 mi SSE 11.5 mph - N/A   Clear
1:55 AM 15.8 °F 2.1 °F 10.4 °F 79% 30.11 in 10.0 mi SSE 12.7 mph - N/A   Clear
2:15 AM 15.8 °F 0.9 °F 10.4 °F 79% 30.10 in 10.0 mi SE 15.0 mph - N/A   Clear
2:35 AM 14.0 °F -2.0 °F 10.4 °F 86% 30.09 in 10.0 mi SSE 16.1 mph - N/A   Clear
2:55 AM 14.0 °F -1.4 °F 10.4 °F 86% 30.08 in 10.0 mi SSE 15.0 mph - N/A   Clear
3:15 AM 15.8 °F 1.4 °F 10.4 °F 79% 30.08 in 10.0 mi SSE 13.8 mph - N/A   Clear
3:35 AM 15.8 °F 1.4 °F 10.4 °F 79% 30.07 in 10.0 mi SSE 13.8 mph - N/A   Clear
3:55 AM 15.8 °F 1.4 °F 10.4 °F 79% 30.07 in 10.0 mi SSE 13.8 mph - N/A   Clear
4:15 AM 15.8 °F 1.4 °F 10.4 °F 79% 30.06 in 10.0 mi SSE 13.8 mph - N/A   Clear
4:35 AM 14.0 °F -0.8 °F 10.4 °F 86% 30.06 in 10.0 mi SSE 13.8 mph - N/A   Clear
4:55 AM 14.0 °F 0.5 °F 10.4 °F 86% 30.06 in 10.0 mi SSE 11.5 mph - N/A   Clear
5:15 AM 14.0 °F 1.2 °F 10.4 °F 86% 30.06 in 10.0 mi SSE 10.4 mph - N/A   Clear
5:35 AM 14.0 °F 1.2 °F 10.4 °F 86% 30.05 in 10.0 mi SE 10.4 mph - N/A   Clear
5:55 AM 14.0 °F 1.2 °F 10.4 °F 86% 30.05 in 10.0 mi SSE 10.4 mph - N/A   Clear
6:15 AM 14.0 °F 6.5 °F 10.4 °F 86% 30.06 in 10.0 mi South 4.6 mph - N/A   Clear
6:35 AM 14.0 °F 2.9 °F 10.4 °F 86% 30.05 in 10.0 mi SSE 8.1 mph - N/A   Clear
6:55 AM 14.0 °F -0.2 °F 10.4 °F 86% 30.05 in 10.0 mi SSE 12.7 mph - N/A   Clear
7:15 AM 14.0 °F -0.8 °F 10.4 °F 86% 30.05 in 10.0 mi SSE 13.8 mph - N/A   Clear
7:35 AM 14.0 °F -1.4 °F 10.4 °F 86% 30.05 in 10.0 mi SSE 15.0 mph - N/A   Clear
7:55 AM 15.8 °F 0.9 °F 10.4 °F 79% 30.05 in 10.0 mi SSE 15.0 mph - N/A   Clear
8:15 AM 17.6 °F 4.3 °F 12.2 °F 79% 30.05 in 10.0 mi SSE 12.7 mph - N/A   Clear
8:35 AM 17.6 °F 5.7 °F 14.0 °F 86% 30.05 in 10.0 mi SSE 10.4 mph - N/A   Clear
8:55 AM 19.4 °F 7.9 °F 14.0 °F 80% 30.05 in 10.0 mi SSE 10.4 mph - N/A   Clear
9:15 AM 21.2 °F 8.3 °F 14.0 °F 74% 30.05 in 10.0 mi SSE 13.8 mph 17.3 mph N/A   Clear
9:35 AM 23.0 °F 11.1 °F 15.8 °F 74% 30.05 in 10.0 mi SSE 12.7 mph 17.3 mph N/A   Clear
9:55 AM 23.0 °F 9.6 °F 15.8 °F 74% 30.04 in 10.0 mi SSE 16.1 mph 21.9 mph N/A   Clear
10:15 AM 24.8 °F 11.5 °F 15.8 °F 69% 30.04 in 10.0 mi SSE 17.3 mph 23.0 mph N/A   Clear
10:35 AM 24.8 °F 11.9 °F 15.8 °F 69% 30.04 in 10.0 mi SSE 16.1 mph 20.7 mph N/A   Clear
10:55 AM 26.6 °F 14.3 °F 17.6 °F 69% 30.04 in 10.0 mi SSE 16.1 mph - N/A   Clear
11:15 AM 28.4 °F 16.2 °F 19.4 °F 69% 30.03 in 10.0 mi SSE 17.3 mph 20.7 mph N/A   Clear
11:35 AM 28.4 °F 16.2 °F 19.4 °F 69% 30.03 in 10.0 mi SSE 17.3 mph - N/A   Clear
11:55 AM 28.4 °F 16.6 °F 19.4 °F 69% 30.02 in 10.0 mi SSE 16.1 mph 20.7 mph N/A   Clear
12:15 PM 30.2 °F 19.8 °F 19.4 °F 64% 30.03 in 10.0 mi SSE 13.8 mph - N/A   Clear
12:35 PM 30.2 °F 19.8 °F 19.4 °F 64% 30.03 in 10.0 mi SSE 13.8 mph - N/A   Clear
12:55 PM 32.0 °F 23.0 °F 21.2 °F 64% 30.03 in 10.0 mi SSE 11.5 mph - N/A   Clear
1:15 PM 32.0 °F 22.5 °F 23.0 °F 69% 30.03 in 10.0 mi SE 12.7 mph - N/A   Clear
1:35 PM 32.0 °F 22.1 °F 23.0 °F 69% 30.03 in 10.0 mi SSE 13.8 mph - N/A   Clear
1:55 PM 32.0 °F 24.2 °F 23.0 °F 69% 30.03 in 10.0 mi SE 9.2 mph - N/A   Clear
2:15 PM 33.8 °F 26.4 °F 23.0 °F 65% 30.03 in 10.0 mi SSE 9.2 mph - N/A   Clear
2:35 PM 33.8 °F 26.4 °F 23.0 °F 65% 30.03 in 10.0 mi South 9.2 mph - N/A   Clear
2:55 PM 35.6 °F 28.0 °F 24.8 °F 65% 30.02 in 10.0 mi SSE 10.4 mph - N/A   Clear
3:15 PM 35.6 °F 29.2 °F 24.8 °F 65% 30.02 in 10.0 mi SSE 8.1 mph - N/A   Clear
3:35 PM 35.6 °F 28.0 °F 24.8 °F 65% 30.02 in 10.0 mi SE 10.4 mph - N/A   Clear
3:55 PM 37.4 °F 29.8 °F 26.6 °F 65% 30.01 in 10.0 mi SSE 11.5 mph - N/A   Clear
4:15 PM 37.4 °F 30.3 °F 26.6 °F 65% 30.01 in 10.0 mi SSE 10.4 mph - N/A   Clear
4:35 PM 37.4 °F 30.3 °F 26.6 °F 65% 30.01 in 10.0 mi SSE 10.4 mph - N/A   Clear
4:55 PM 37.4 °F 30.3 °F 24.8 °F 60% 30.01 in 10.0 mi SSE 10.4 mph - N/A   Clear
5:15 PM 37.4 °F 29.8 °F 24.8 °F 60% 30.01 in 10.0 mi SSE 11.5 mph - N/A   Clear
5:35 PM 37.4 °F 29.8 °F 24.8 °F 60% 30.01 in 10.0 mi SSE 11.5 mph - N/A   Clear
5:55 PM 37.4 °F 30.3 °F 24.8 °F 60% 30.01 in 10.0 mi SSE 10.4 mph - N/A   Clear
6:15 PM 37.4 °F 30.8 °F 24.8 °F 60% 30.01 in 10.0 mi SSE 9.2 mph - N/A   Clear
6:35 PM 35.6 °F 29.2 °F 26.6 °F 70% 30.01 in 10.0 mi SSE 8.1 mph - N/A   Clear
6:55 PM 35.6 °F 29.2 °F 24.8 °F 65% 30.01 in 10.0 mi SSE 8.1 mph - N/A   Clear
7:15 PM 32.0 °F 24.8 °F 24.8 °F 75% 30.01 in 10.0 mi SSE 8.1 mph - N/A   Partly Cloudy
7:35 PM 32.0 °F 26.4 °F 24.8 °F 75% 30.02 in 10.0 mi South 5.8 mph - N/A   Partly Cloudy
7:55 PM 30.2 °F 23.4 °F 24.8 °F 80% 30.02 in 10.0 mi SE 6.9 mph - N/A   Clear
8:15 PM 28.4 °F 21.2 °F 24.8 °F 86% 30.02 in 10.0 mi SE 6.9 mph - N/A   Clear
8:35 PM 28.4 °F 21.2 °F 23.0 °F 80% 30.03 in 10.0 mi ESE 6.9 mph - N/A   Clear
8:55 PM 26.6 °F 21.2 °F 23.0 °F 86% 30.03 in 10.0 mi SE 4.6 mph - N/A   Clear
9:15 PM 26.6 °F 19.1 °F 23.0 °F 86% 30.03 in 10.0 mi SSE 6.9 mph - N/A   Clear
9:35 PM 28.4 °F 20.4 °F 23.0 °F 80% 30.04 in 10.0 mi SSE 8.1 mph - N/A   Clear
9:55 PM 28.4 °F 22.2 °F 23.0 °F 80% 30.05 in 10.0 mi SSE 5.8 mph - N/A   Clear
10:15 PM 28.4 °F 21.2 °F 23.0 °F 80% 30.04 in 10.0 mi SSE 6.9 mph - N/A   Clear
10:35 PM 26.6 °F 19.1 °F 23.0 °F 86% 30.05 in 10.0 mi SSE 6.9 mph - N/A   Clear
10:55 PM 28.4 °F - 23.0 °F 80% 30.05 in 10.0 mi North - - N/A   Clear
11:15 PM 28.4 °F 19.7 °F 23.0 °F 80% 30.05 in 10.0 mi SSE 9.2 mph - N/A   Clear
11:35 PM 26.6 °F - 21.2 °F 80% 30.04 in 10.0 mi North - - N/A   Clear
11:55 PM 26.6 °F - 21.2 °F 80% 30.05 in 10.0 mi North - - N/A   Clear